KE7JVX-3 Weather Reports


time (UTC)temp
C
wind
direction
speed
KPH
gust
KPH
rain 1hr
cm
rain 24hr
cm
rain mn
cm
humidity
%
barometer
mb
20260509143226 15 44 6.4 17.7 0.00 0.00 0.00 9 1013.8
20260509142226 15 49 6.4 19.3 0.00 0.00 0.00 8 1013.7
20260509141226 14 39 11.3 20.9 0.00 0.00 0.00 8 1013.6
20260509140226 13 33 11.3 20.9 0.00 0.00 0.00 8 1013.5
20260509135226 13 32 9.7 25.7 0.00 0.00 0.00 8 1013.4
20260509134226 13 37 11.3 29.0 0.00 0.00 0.00 8 1013.4
20260509133226 13 34 11.3 29.0 0.00 0.00 0.00 8 1013.3
20260509132226 13 31 12.9 29.0 0.00 0.00 0.00 8 1013.3
20260509131226 13 28 9.7 25.7 0.00 0.00 0.00 8 1013.3
20260509130226 13 29 12.9 25.7 0.00 0.00 0.00 8 1013.1
20260509125226 13 31 12.9 29.0 0.00 0.00 0.00 8 1013.1
20260509124226 13 30 12.9 24.1 0.00 0.00 0.00 8 1013.0
20260509123228 13 22 14.5 27.4 0.00 0.00 0.00 8 1012.9
20260509122226 13 18 12.9 27.4 0.00 0.00 0.00 8 1012.8
20260509121226 13 16 14.5 30.6 0.00 0.00 0.00 8 1012.7
20260509120226 13 10 14.5 27.4 0.00 0.00 0.00 7 1012.7
20260509115226 13 9 12.9 27.4 0.00 0.00 0.00 7 1012.7
20260509114226 13 360 9.7 25.7 0.00 0.00 0.00 7 1012.7
20260509113226 13 6 14.5 25.7 0.00 0.00 0.00 7 1012.7
20260509112226 13 352 12.9 24.1 0.00 0.00 0.00 7 1012.7
20260509111226 13 357 14.5 30.6 0.00 0.00 0.00 7 1012.7
20260509110226 12 359 14.5 30.6 0.00 0.00 0.00 8 1012.7
20260509105226 12 353 16.1 30.6 0.00 0.00 0.00 8 1012.6
20260509104226 12 352 14.5 27.4 0.00 0.00 0.00 8 1012.7
20260509103226 13 348 14.5 29.0 0.00 0.00 0.00 9 1012.8
20260509102226 12 353 16.1 33.8 0.00 0.00 0.00 9 1012.8
20260509101226 13 339 16.1 35.4 0.00 0.00 0.00 9 1012.9
20260509100225 13 342 19.3 29.0 0.00 0.00 0.00 9 1012.8
20260509095226 13 334 16.1 32.2 0.00 0.00 0.00 9 1012.9
20260509094226 13 334 16.1 29.0 0.00 0.00 0.00 8 1013.0
20260509093227 13 339 16.1 29.0 0.00 0.00 0.00 9 1013.0
20260509092226 13 336 19.3 35.4 0.00 0.00 0.00 8 1013.0
20260509091226 13 333 19.3 37.0 0.00 0.00 0.00 8 1013.0
20260509090226 13 336 17.7 33.8 0.00 0.00 0.00 8 1013.0
20260509085227 13 339 19.3 35.4 0.00 0.00 0.00 8 1013.0
20260509084225 13 334 19.3 32.2 0.00 0.00 0.00 8 1013.1
20260509083225 13 328 19.3 35.4 0.00 0.00 0.00 8 1013.0
20260509081928 13 332 20.9 33.8 0.00 0.00 0.00 8 1013.1
20260509080928 13 333 19.3 32.2 0.00 0.00 0.00 9 1013.1
20260509075928 13 333 20.9 32.2 0.00 0.00 0.00 9 1012.9
20260509074928 13 326 22.5 35.4 0.00 0.00 0.00 9 1013.0
20260509073928 13 316 20.9 32.2 0.00 0.00 0.00 12 1013.1
20260509072928 13 322 24.1 37.0 0.00 0.00 0.00 12 1013.1
20260509071928 12 321 22.5 38.6 0.00 0.00 0.00 13 1013.2
20260509070928 12 315 20.9 41.8 0.00 0.00 0.00 14 1013.1
20260509065928 12 317 22.5 38.6 0.00 0.00 0.00 15 1013.2
20260509064929 12 308 24.1 40.2 0.00 0.00 0.00 15 1013.2
20260509063928 12 309 24.1 35.4 0.00 0.00 0.00 15 1013.2
20260509062931 12 313 19.3 38.6 0.00 0.00 0.00 15 1013.2
20260509061427 12 307 24.1 38.6 0.00 0.00 0.00 15 1013.1
20260509060427 13 310 24.1 40.2 0.00 0.00 0.00 14 1013.2
20260509055427 13 310 22.5 37.0 0.00 0.00 0.00 13 1013.2
20260509054427 13 307 24.1 38.6 0.00 0.00 0.00 13 1013.2
20260509053427 13 310 24.1 37.0 0.00 0.00 0.00 12 1013.2
20260509052427 13 312 22.5 35.4 0.00 0.00 0.00 12 1013.2
20260509051427 13 313 24.1 40.2 0.00 0.00 0.00 12 1013.2
20260509050427 13 319 20.9 35.4 0.00 0.00 0.00 12 1013.2
20260509045540 13 312 25.7 37.0 0.00 0.00 0.00 12 1013.3
20260509045427 13 312 25.7 37.0 0.00 0.00 0.00 12 1013.3
20260509044429 13 319 22.5 37.0 0.00 0.00 0.00 12 1013.2
20260509043543 13 312 24.1 35.4 0.00 0.00 0.00 13 1013.2
20260509043430 13 312 24.1 35.4 0.00 0.00 0.00 13 1013.2
20260509042427 13 317 20.9 32.2 0.00 0.00 0.00 14 1013.1
20260509041544 13 320 24.1 35.4 0.00 0.00 0.00 14 1013.1
20260509041428 13 320 24.1 35.4 0.00 0.00 0.00 14 1013.1
20260509040527 13 318 24.1 35.4 0.00 0.00 0.00 14 1013.0
20260509040431 13 318 24.1 35.4 0.00 0.00 0.00 14 1013.0
20260509035519 13 320 20.9 33.8 0.00 0.00 0.00 14 1012.9
20260509035427 13 320 20.9 33.8 0.00 0.00 0.00 14 1012.9
20260509034528 13 323 22.5 35.4 0.00 0.00 0.00 14 1012.8
20260509034428 13 323 22.5 35.4 0.00 0.00 0.00 14 1012.8
20260509033518 13 314 25.7 37.0 0.00 0.00 0.00 14 1012.7
20260509033428 13 314 25.7 37.0 0.00 0.00 0.00 14 1012.7
20260509032427 13 312 22.5 33.8 0.00 0.00 0.00 13 1012.7
20260509031427 13 311 24.1 33.8 0.00 0.00 0.00 13 1012.7
20260509030526 13 311 22.5 38.6 0.00 0.00 0.00 12 1012.6
20260509030427 13 311 22.5 38.6 0.00 0.00 0.00 12 1012.6
20260509025522 13 310 24.1 35.4 0.00 0.00 0.00 12 1012.5
20260509025428 13 310 24.1 35.4 0.00 0.00 0.00 12 1012.5
20260509024516 13 314 20.9 37.0 0.00 0.00 0.00 12 1012.4
20260509024432 13 314 20.9 37.0 0.00 0.00 0.00 12 1012.4
20260509023603 13 312 20.9 33.8 0.00 0.00 0.00 12 1012.3
20260509023427 13 312 20.9 33.8 0.00 0.00 0.00 12 1012.3
20260509022510 13 306 22.5 35.4 0.00 0.00 0.00 12 1012.2
20260509022427 13 306 22.5 35.4 0.00 0.00 0.00 12 1012.2
20260509021547 13 310 20.9 35.4 0.00 0.00 0.00 12 1012.1
20260509021427 13 310 20.9 35.4 0.00 0.00 0.00 12 1012.1
20260509020427 13 309 22.5 38.6 0.00 0.00 0.00 12 1012.1
20260509015427 14 317 20.9 35.4 0.00 0.00 0.00 11 1012.0
20260509014427 14 300 24.1 41.8 0.00 0.00 0.00 11 1012.0
20260509013512 14 298 29.0 40.2 0.00 0.00 0.00 11 1011.9
20260509013427 14 298 29.0 40.2 0.00 0.00 0.00 11 1011.9
20260509012547 14 301 27.4 43.5 0.00 0.00 0.00 11 1011.9
20260509012427 14 301 27.4 43.5 0.00 0.00 0.00 11 1011.9
20260509011427 15 293 25.7 43.5 0.00 0.00 0.00 11 1011.9
20260509010515 15 298 24.1 43.5 0.00 0.00 0.00 10 1012.0
20260509010427 15 298 24.1 43.5 0.00 0.00 0.00 10 1012.0
20260509005516 15 304 24.1 41.8 0.00 0.00 0.00 10 1011.9
20260509005430 15 304 24.1 41.8 0.00 0.00 0.00 10 1011.9
20260509004427 15 298 20.9 32.2 0.00 0.00 0.00 9 1012.0
20260509003427 15 297 20.9 40.2 0.00 0.00 0.00 9 1012.0
20260509002427 15 284 25.7 40.2 0.00 0.00 0.00 9 1011.9
20260509001523 15 297 17.7 41.8 0.00 0.00 0.00 9 1012.0
20260509001427 15 297 17.7 41.8 0.00 0.00 0.00 9 1012.0
20260509000522 15 287 24.1 41.8 0.00 0.00 0.00 9 1012.1
20260509000427 15 287 24.1 41.8 0.00 0.00 0.00 9 1012.1
20260508235512 16 290 20.9 45.1 0.00 0.00 0.00 9 1011.9
20260508235430 16 290 20.9 45.1 0.00 0.00 0.00 9 1011.9
20260508234504 16 278 11.3 32.2 0.00 0.00 0.00 9 1012.2
20260508234428 16 278 11.3 32.2 0.00 0.00 0.00 9 1012.2
20260508233428 16 277 20.9 33.8 0.00 0.00 0.00 7 1012.4
20260508232512 16 280 20.9 35.4 0.00 0.00 0.00 7 1012.3
20260508232428 16 280 20.9 35.4 0.00 0.00 0.00 7 1012.3
20260508231427 16 273 17.7 32.2 0.00 0.00 0.00 9 1012.4
20260508230427 16 272 20.9 40.2 0.00 0.00 0.00 7 1012.3
20260508225538 16 281 17.7 45.1 0.00 0.00 0.00 8 1012.3
20260508225428 16 281 17.7 45.1 0.00 0.00 0.00 8 1012.3
20260508224550 16 299 12.9 35.4 0.00 0.00 0.00 9 1012.4
20260508224427 16 299 12.9 35.4 0.00 0.00 0.00 9 1012.4
20260508223430 16 289 17.7 43.5 0.00 0.00 0.00 9 1012.5
20260508222427 16 289 16.1 35.4 0.00 0.00 0.00 9 1012.4
20260508221431 16 297 17.7 38.6 0.00 0.00 0.00 8 1012.6
20260508220427 16 262 22.5 37.0 0.00 0.00 0.00 9 1012.6
20260508215430 16 243 9.7 30.6 0.00 0.00 0.00 10 1012.7
20260508214530 16 282 12.9 35.4 0.00 0.00 0.00 10 1012.8
20260508214427 16 282 12.9 35.4 0.00 0.00 0.00 10 1012.8
20260508213428 16 286 11.3 32.2 0.00 0.00 0.00 11 1013.0
20260508212427 16 285 17.7 32.2 0.00 0.00 0.00 10 1013.0
20260508211428 16 287 12.9 32.2 0.00 0.00 0.00 11 1013.0
20260508210427 15 266 25.7 37.0 0.00 0.00 0.00 10 1013.1
20260508205428 16 296 14.5 32.2 0.00 0.00 0.00 9 1013.2
20260508204500 16 280 11.3 30.6 0.00 0.00 0.00 13 1013.3
20260508204427 16 280 11.3 30.6 0.00 0.00 0.00 13 1013.3
20260508203427 16 273 9.7 25.7 0.00 0.00 0.00 11 1013.3
20260508202522 16 269 14.5 29.0 0.00 0.00 0.00 13 1013.4
20260508202427 16 269 14.5 29.0 0.00 0.00 0.00 13 1013.4
20260508201430 16 280 14.5 30.6 0.00 0.00 0.00 9 1013.4
20260508200427 16 294 17.7 33.8 0.00 0.00 0.00 10 1013.5
20260508195427 16 296 8.0 29.0 0.00 0.00 0.00 13 1013.6
20260508194505 15 289 11.3 25.7 0.00 0.00 0.00 11 1013.6
20260508194427 15 289 11.3 25.7 0.00 0.00 0.00 11 1013.6
20260508193427 15 304 11.3 20.9 0.00 0.00 0.00 13 1013.7
20260508192431 16 294 12.9 25.7 0.00 0.00 0.00 13 1013.7
20260508191427 16 318 6.4 17.7 0.00 0.00 0.00 13 1013.8
20260508190427 16 296 8.0 17.7 0.00 0.00 0.00 14 1013.8
20260508185428 16 283 6.4 14.5 0.00 0.00 0.00 16 1013.8
20260508184427 16 301 3.2 14.5 0.00 0.00 0.00 13 1014.0
20260508183427 16 249 1.6 16.1 0.00 0.00 0.00 11 1014.0
20260508181527 16 0 0.0 11.3 0.00 0.00 0.00 4 1014.1
20260508180527 15 17 6.4 20.9 0.00 0.00 0.00 4 1014.1
20260508175526 15 45 3.2 12.9 0.00 0.00 0.00 6 1014.1
20260508174526 15 101 4.8 12.9 0.00 0.00 0.00 8 1014.1
20260508173526 15 44 4.8 11.3 0.00 0.00 0.00 8 1014.1
20260508172526 15 79 3.2 12.9 0.00 0.00 0.00 11 1014.1
20260508171526 15 29 3.2 8.0 0.00 0.00 0.00 9 1014.1
20260508170527 14 98 3.2 9.7 0.00 0.00 0.00 9 1014.1
20260508165526 14 0 0.0 12.9 0.00 0.00 0.00 9 1014.0
20260508164526 14 24 4.8 14.5 0.00 0.00 0.00 7 1013.9
20260508163526 14 32 3.2 12.9 0.00 0.00 0.00 12 1013.9
20260508162528 13 26 4.8 16.1 0.00 0.00 0.00 9 1013.9
20260508161527 13 27 4.8 12.9 0.00 0.00 0.00 9 1013.8
20260508160528 13 7 3.2 9.7 0.00 0.00 0.00 10 1013.8
20260508155527 13 34 1.6 12.9 0.00 0.00 0.00 12 1013.8
20260508154527 12 49 3.2 12.9 0.00 0.00 0.00 11 1013.7
20260508153527 12 23 6.4 19.3 0.00 0.00 0.00 11 1013.7
20260508152526 12 29 4.8 24.1 0.00 0.00 0.00 13 1013.6
20260508151526 12 18 9.7 20.9 0.00 0.00 0.00 12 1013.5
20260508150527 11 1 9.7 24.1 0.00 0.00 0.00 12 1013.4
20260508145526 11 357 11.3 20.9 0.00 0.00 0.00 12 1013.5
20260508144526 11 360 11.3 27.4 0.00 0.00 0.00 12 1013.4